"Period start","avg(HW err(1)/warn(2) (#))","avg(Visibility (m))","avg(Weather code (#))","avg(Precip intensity (mm/h))","min(HW err(1)/warn(2) (#))","max(HW err(1)/warn(2) (#))","std(HW err(1)/warn(2) (#))","med(HW err(1)/warn(2) (#))","min(Visibility (m))","max(Visibility (m))","std(Visibility (m))","med(Visibility (m))","min(Weather code (#))","max(Weather code (#))","std(Weather code (#))","med(Weather code (#))","min(Precip intensity (mm/h))","max(Precip intensity (mm/h))","std(Precip intensity (mm/h))","med(Precip intensity (mm/h))"
2014-04-04 00:00:00,2,1172,42,0.02,2,2,0,2,900,1471,174,1129,10,77,32,40,0.00,0.10,0.03,0.00
2014-04-04 00:10:00,2,1154,70,0.03,2,2,0,2,814,1371,190,1182,10,77,20,77,0.00,0.10,0.03,0.03
2014-04-04 00:20:00,2,1214,49,0.03,2,2,0,2,962,1663,252,1133,10,77,32,71,0.00,0.05,0.03,0.03
2014-04-04 00:30:00,2,1807,64,0.01,2,2,0,2,1419,2425,333,1729,10,77,27,77,0.00,0.05,0.02,0.00
2014-04-04 00:40:00,2,1729,10,0.00,2,2,0,2,1251,2631,439,1562,10,10,0,10,0.00,0.00,0.00,0.00
2014-04-04 00:50:00,2,2476,10,0.00,2,2,0,2,1688,3308,542,2496,10,10,0,10,0.00,0.00,0.00,0.00
2014-04-04 01:00:00,2,1808,10,0.00,2,2,0,2,1148,3094,491,1780,10,10,0,10,0.00,0.00,0.00,0.00
2014-04-04 01:10:00,2,2519,10,0.00,2,2,0,2,1571,3855,629,2498,10,10,0,10,0.00,0.00,0.00,0.00
2014-04-04 01:20:00,2,3607,10,0.00,2,2,0,2,2231,4693,645,3528,10,10,0,10,0.00,0.00,0.00,0.00
2014-04-04 01:30:00,2,3167,10,0.00,2,2,0,2,2221,4595,732,3030,10,10,0,10,0.00,0.00,0.00,0.00
2014-04-04 01:40:00,2,3214,10,0.00,2,2,0,2,2106,4313,752,3339,10,10,0,10,0.00,0.00,0.00,0.00
2014-04-04 01:50:00,2,2792,10,0.00,2,2,0,2,1974,3386,505,2853,10,10,0,10,0.00,0.00,0.00,0.00
2014-04-04 02:00:00,2,3304,10,0.00,2,2,0,2,2060,5099,981,3154,10,10,0,10,0.00,0.00,0.00,0.00
2014-04-04 02:10:00,2,8192,10,0.00,2,2,0,2,4507,11183,2256,9005,10,10,0,10,0.00,0.00,0.00,0.00
2014-04-04 02:20:00,2,6994,10,0.00,2,2,0,2,3988,10742,1702,6548,10,10,0,10,0.00,0.00,0.00,0.00
2014-04-04 02:30:00,2,5829,10,0.00,2,2,0,2,4757,7123,762,5570,10,10,0,10,0.00,0.00,0.00,0.00
2014-04-04 02:40:00,2,6436,10,0.00,2,2,0,2,4437,8263,1343,6336,10,10,0,10,0.00,0.00,0.00,0.00
2014-04-04 02:50:00,2,4197,10,0.00,2,2,0,2,3054,6970,1161,3580,10,10,0,10,0.00,0.00,0.00,0.00
2014-04-04 03:00:00,2,4911,10,0.00,2,2,0,2,2821,6333,1073,4516,10,10,0,10,0.00,0.00,0.00,0.00
2014-04-04 03:10:00,2,4736,10,0.00,2,2,0,2,3273,6178,838,4742,10,10,0,10,0.00,0.00,0.00,0.00
2014-04-04 03:20:00,2,5762,10,0.00,2,2,0,2,4080,7121,774,5813,10,10,0,10,0.00,0.00,0.00,0.00
2014-04-04 03:30:00,2,8600,10,0.00,2,2,0,2,4883,11074,1946,8560,10,10,0,10,0.00,0.00,0.00,0.00
2014-04-04 03:40:00,2,10869,10,0.00,2,2,0,2,6350,18185,3745,10440,10,10,0,10,0.00,0.00,0.00,0.00
2014-04-04 03:50:00,2,6822,10,0.00,2,2,0,2,3846,8450,1394,7248,10,10,0,10,0.00,0.00,0.00,0.00
2014-04-04 04:00:00,2,8328,10,0.00,2,2,0,2,6586,11875,1626,7808,10,10,0,10,0.00,0.00,0.00,0.00
2014-04-04 04:10:00,2,10467,10,0.00,2,2,0,2,6826,16073,2571,10949,10,10,0,10,0.00,0.00,0.00,0.00
2014-04-04 04:20:00,2,13156,6,0.00,2,2,0,2,10307,16190,1922,13394,0,10,5,10,0.00,0.00,0.00,0.00
2014-04-04 04:30:00,2,15538,0,0.00,2,2,0,2,12031,23683,3266,14360,0,0,0,0,0.00,0.00,0.00,0.00
2014-04-04 04:40:00,2,9033,1,0.00,2,2,0,2,4821,12710,2417,8818,0,10,3,0,0.00,0.00,0.00,0.00
2014-04-04 04:50:00,2,6793,10,0.00,2,2,0,2,4709,8733,1525,7139,10,10,0,10,0.00,0.00,0.00,0.00
2014-04-04 05:00:00,2,8416,10,0.00,2,2,0,2,5891,15584,2763,7373,10,10,0,10,0.00,0.00,0.00,0.00
2014-04-04 05:10:00,2,6091,10,0.00,2,2,0,2,3944,9267,1516,5856,10,10,0,10,0.00,0.00,0.00,0.00
2014-04-04 05:20:00,2,10433,10,0.00,2,2,0,2,6528,15442,2805,9572,10,10,0,10,0.00,0.00,0.00,0.00
2014-04-04 05:30:00,2,16200,4,0.00,2,2,0,2,10257,26783,4516,15371,0,10,5,0,0.00,0.00,0.00,0.00
2014-04-04 05:40:00,2,13289,0,0.00,2,2,0,2,9901,18866,3013,11954,0,0,0,0,0.00,0.00,0.00,0.00
2014-04-04 05:50:00,2,17197,0,0.00,2,2,0,2,10788,23718,4100,17672,0,0,0,0,0.00,0.00,0.00,0.00
2014-04-04 06:00:00,2,14684,0,0.00,2,2,0,2,10115,21168,3423,13583,0,0,0,0,0.00,0.00,0.00,0.00
2014-04-04 06:10:00,2,10090,0,0.00,2,2,0,2,6895,15284,2442,9608,0,0,0,0,0.00,0.00,0.00,0.00
2014-04-04 06:20:00,2,8260,8,0.00,2,2,0,2,6048,10768,1630,8112,0,10,4,10,0.00,0.00,0.00,0.00
2014-04-04 06:30:00,2,7676,10,0.00,2,2,0,2,5079,10947,1842,7372,10,10,0,10,0.00,0.00,0.00,0.00
2014-04-04 06:40:00,2,11577,10,0.00,2,2,0,2,5878,25204,6030,9836,10,10,0,10,0.00,0.00,0.00,0.00
2014-04-04 06:50:00,2,7176,10,0.00,2,2,0,2,4059,9748,1821,7498,10,10,0,10,0.00,0.00,0.00,0.00
2014-04-04 07:00:00,2,7277,10,0.00,2,2,0,2,4872,9858,1597,7130,10,10,0,10,0.00,0.00,0.00,0.00
2014-04-04 07:10:00,2,12099,10,0.00,2,2,0,2,6779,16095,2992,12845,10,10,0,10,0.00,0.00,0.00,0.00
2014-04-04 07:20:00,2,10753,1,0.00,2,2,0,2,5568,19287,3656,9537,0,10,3,0,0.00,0.00,0.00,0.00
2014-04-04 07:30:00,2,10197,0,0.00,2,2,0,2,7831,12719,1463,10290,0,0,0,0,0.00,0.00,0.00,0.00
2014-04-04 07:40:00,2,12190,0,0.00,2,2,0,2,8476,16271,1844,12020,0,0,0,0,0.00,0.00,0.00,0.00
2014-04-04 07:50:00,2,10571,0,0.00,2,2,0,2,6140,13636,2680,10465,0,0,0,0,0.00,0.00,0.00,0.00
2014-04-04 08:00:00,2,7963,10,0.00,2,2,0,2,5257,12818,1987,7832,10,10,0,10,0.00,0.00,0.00,0.00
2014-04-04 08:10:00,2,12078,10,0.00,2,2,0,2,8342,19472,3681,10979,10,10,0,10,0.00,0.00,0.00,0.00
2014-04-04 08:20:00,2,22241,1,0.00,2,2,0,2,14702,31385,5071,21825,0,10,3,0,0.00,0.00,0.00,0.00
2014-04-04 08:30:00,2,38449,0,0.00,2,2,0,2,30332,43239,3938,39120,0,0,0,0,0.00,0.00,0.00,0.00
2014-04-04 08:40:00,2,41607,0,0.00,2,2,0,2,28742,49138,5232,42832,0,0,0,0,0.00,0.00,0.00,0.00
2014-04-04 08:50:00,2,41791,0,0.00,2,2,0,2,34200,49731,4496,41657,0,0,0,0,0.00,0.00,0.00,0.00
2014-04-04 09:00:00,2,45665,0,0.00,2,2,0,2,39157,50000,3879,46529,0,0,0,0,0.00,0.00,0.00,0.00
2014-04-04 09:10:00,2,43068,0,0.00,2,2,0,2,38015,50000,3547,41586,0,0,0,0,0.00,0.00,0.00,0.00
2014-04-04 09:20:00,2,47462,0,0.00,2,2,0,2,43659,50000,2401,48042,0,0,0,0,0.00,0.00,0.00,0.00
2014-04-04 09:30:00,2,32715,0,0.00,2,2,0,2,21840,47018,7656,32166,0,0,0,0,0.00,0.00,0.00,0.00
2014-04-04 09:40:00,2,32732,0,0.00,2,2,0,2,22785,39304,5912,34231,0,0,0,0,0.00,0.00,0.00,0.00
2014-04-04 09:50:00,2,39403,0,0.00,2,2,0,2,27416,47790,6902,41656,0,0,0,0,0.00,0.00,0.00,0.00
2014-04-04 10:00:00,2,44181,0,0.00,2,2,0,2,30674,50000,6015,46072,0,0,0,0,0.00,0.00,0.00,0.00
2014-04-04 10:10:00,2,49012,0,0.00,2,2,0,2,44019,50000,1847,50000,0,0,0,0,0.00,0.00,0.00,0.00
2014-04-04 10:20:00,2,47749,0,0.00,2,2,0,2,43638,50000,1979,47759,0,0,0,0,0.00,0.00,0.00,0.00
2014-04-04 10:30:00,2,47354,0,0.00,2,2,0,2,42508,50000,2890,48880,0,0,0,0,0.00,0.00,0.00,0.00
2014-04-04 10:40:00,2,49334,0,0.00,2,2,0,2,47086,50000,1023,50000,0,0,0,0,0.00,0.00,0.00,0.00
2014-04-04 10:50:00,2,49752,0,0.00,2,2,0,2,48810,50000,407,50000,0,0,0,0,0.00,0.00,0.00,0.00
2014-04-04 11:00:00,2,49143,0,0.00,2,2,0,2,44278,50000,1831,50000,0,0,0,0,0.00,0.00,0.00,0.00
2014-04-04 11:10:00,2,49897,0,0.00,2,2,0,2,48968,50000,310,50000,0,0,0,0,0.00,0.00,0.00,0.00
2014-04-04 11:20:00,2,48244,0,0.00,2,2,0,2,42012,50000,2582,50000,0,0,0,0,0.00,0.00,0.00,0.00
2014-04-04 11:30:00,2,47890,0,0.00,2,2,0,2,40826,50000,3127,50000,0,0,0,0,0.00,0.00,0.00,0.00
2014-04-04 11:40:00,2,44898,0,0.00,2,2,0,2,36864,50000,4898,47839,0,0,0,0,0.00,0.00,0.00,0.00
2014-04-04 11:50:00,2,20153,37,0.00,2,2,0,2,14668,40572,7661,16421,0,78,37,36,0.00,0.00,0.00,0.00
2014-04-04 12:00:00,2,16981,78,0.01,2,2,0,2,11185,26844,4766,16941,78,78,0,78,0.00,0.05,0.02,0.00
2014-04-04 12:10:00,2,40887,70,0.00,2,2,0,2,25824,50000,7331,41428,0,78,23,78,0.00,0.00,0.00,0.00
2014-04-04 12:20:00,2,33441,0,0.00,2,2,0,2,26190,40695,4849,32426,0,0,0,0,0.00,0.00,0.00,0.00
2014-04-04 12:30:00,2,36708,22,0.00,2,2,0,2,15125,50000,13245,43214,0,78,34,0,0.00,0.00,0.00,0.00
2014-04-04 12:40:00,2,7136,78,0.04,2,2,0,2,5885,9830,1115,6949,78,78,0,78,0.00,0.10,0.03,0.05
2014-04-04 12:50:00,2,14362,78,0.00,2,2,0,2,10198,18309,2535,13480,78,78,0,78,0.00,0.00,0.00,0.00
2014-04-04 13:00:00,2,40111,55,0.00,2,2,0,2,21684,50000,9981,43288,0,78,36,78,0.00,0.00,0.00,0.00
2014-04-04 13:10:00,2,49838,0,0.00,2,2,0,2,48708,50000,385,50000,0,0,0,0,0.00,0.00,0.00,0.00
2014-04-04 13:20:00,2,38517,0,0.00,2,2,0,2,34553,48049,3832,37174,0,0,0,0,0.00,0.00,0.00,0.00
2014-04-04 13:30:00,2,17727,0,0.00,2,2,0,2,7454,38158,11184,12506,0,0,0,0,0.00,0.00,0.00,0.00
2014-04-04 13:40:00,2,8654,77,0.00,2,2,0,2,7571,10442,786,8618,71,78,3,78,0.00,0.00,0.00,0.00
2014-04-04 13:50:00,2,17564,78,0.00,2,2,0,2,11171,25056,4697,17060,78,78,0,78,0.00,0.00,0.00,0.00
2014-04-04 14:00:00,2,20393,62,0.00,2,2,0,2,17743,22319,1494,20542,0,78,31,78,0.00,0.00,0.00,0.00
2014-04-04 14:10:00,2,22080,0,0.00,2,2,0,2,14994,34282,6617,18759,0,0,0,0,0.00,0.00,0.00,0.00
2014-04-04 14:20:00,2,30917,0,0.00,2,2,0,2,16499,40149,7391,32879,0,0,0,0,0.00,0.00,0.00,0.00
2014-04-04 14:30:00,2,45919,0,0.00,2,2,0,2,40019,50000,3406,46440,0,0,0,0,0.00,0.00,0.00,0.00
2014-04-04 14:40:00,2,28060,53,0.00,2,2,0,2,17041,40883,8510,29316,0,78,35,74,0.00,0.00,0.00,0.00
2014-04-04 14:50:00,2,20722,47,0.00,2,2,0,2,16889,30834,4192,19116,0,78,38,78,0.00,0.00,0.00,0.00
2014-04-04 15:00:00,2,38997,0,0.00,2,2,0,2,32529,45174,3458,39335,0,0,0,0,0.00,0.00,0.00,0.00
2014-04-04 15:10:00,2,33704,0,0.00,2,2,0,2,29624,38840,2911,33022,0,0,0,0,0.00,0.00,0.00,0.00
2014-04-04 15:20:00,2,45492,0,0.00,2,2,0,2,36483,50000,4945,47175,0,0,0,0,0.00,0.00,0.00,0.00
2014-04-04 15:30:00,2,30777,0,0.00,2,2,0,2,20682,45692,7895,29909,0,0,0,0,0.00,0.00,0.00,0.00
2014-04-04 15:40:00,2,19304,0,0.00,2,2,0,2,15954,26525,3113,17950,0,0,0,0,0.00,0.00,0.00,0.00
2014-04-04 15:50:00,2,34664,0,0.00,2,2,0,2,23571,46707,8314,36920,0,0,0,0,0.00,0.00,0.00,0.00
2014-04-04 16:00:00,2,36525,0,0.00,2,2,0,2,27857,43877,5296,38287,0,0,0,0,0.00,0.00,0.00,0.00
2014-04-04 16:10:00,2,42044,0,0.00,2,2,0,2,33859,50000,5983,41432,0,0,0,0,0.00,0.00,0.00,0.00
2014-04-04 16:20:00,2,49802,0,0.00,2,2,0,2,48021,50000,594,50000,0,0,0,0,0.00,0.00,0.00,0.00
2014-04-04 16:30:00,2,49666,0,0.00,2,2,0,2,46663,50000,1001,50000,0,0,0,0,0.00,0.00,0.00,0.00
2014-04-04 16:40:00,2,49526,0,0.00,2,2,0,2,47468,50000,922,50000,0,0,0,0,0.00,0.00,0.00,0.00
2014-04-04 16:50:00,2,49845,0,0.00,2,2,0,2,48991,50000,327,50000,0,0,0,0,0.00,0.00,0.00,0.00
2014-04-04 17:00:00,2,49890,0,0.00,2,2,0,2,48903,50000,329,50000,0,0,0,0,0.00,0.00,0.00,0.00
2014-04-04 17:10:00,2,49758,0,0.00,2,2,0,2,48496,50000,469,50000,0,0,0,0,0.00,0.00,0.00,0.00
2014-04-04 17:20:00,2,50000,0,0.00,2,2,0,2,50000,50000,0,50000,0,0,0,0,0.00,0.00,0.00,0.00
2014-04-04 17:30:00,2,50000,0,0.00,2,2,0,2,50000,50000,0,50000,0,0,0,0,0.00,0.00,0.00,0.00
2014-04-04 17:40:00,2,50000,0,0.00,2,2,0,2,50000,50000,0,50000,0,0,0,0,0.00,0.00,0.00,0.00
2014-04-04 17:50:00,2,48110,0,0.00,2,2,0,2,41332,50000,2948,50000,0,0,0,0,0.00,0.00,0.00,0.00
2014-04-04 18:00:00,2,49803,0,0.00,2,2,0,2,48582,50000,439,50000,0,0,0,0,0.00,0.00,0.00,0.00
2014-04-04 18:10:00,2,49533,0,0.00,2,2,0,2,47426,50000,912,50000,0,0,0,0,0.00,0.00,0.00,0.00
2014-04-04 18:20:00,2,47632,0,0.00,2,2,0,2,42893,50000,2775,49364,0,0,0,0,0.00,0.00,0.00,0.00
2014-04-04 18:30:00,2,49812,0,0.00,2,2,0,2,48559,50000,434,50000,0,0,0,0,0.00,0.00,0.00,0.00
2014-04-04 18:40:00,2,49714,0,0.00,2,2,0,2,48381,50000,578,50000,0,0,0,0,0.00,0.00,0.00,0.00
2014-04-04 18:50:00,2,49069,0,0.00,2,2,0,2,45191,50000,1569,50000,0,0,0,0,0.00,0.00,0.00,0.00
2014-04-04 19:00:00,2,48201,0,0.00,2,2,0,2,41950,50000,2340,48706,0,0,0,0,0.00,0.00,0.00,0.00
2014-04-04 19:10:00,2,49886,0,0.00,2,2,0,2,48855,50000,344,50000,0,0,0,0,0.00,0.00,0.00,0.00
2014-04-04 19:20:00,2,48952,0,0.00,2,2,0,2,43744,50000,2121,50000,0,0,0,0,0.00,0.00,0.00,0.00
2014-04-04 19:30:00,2,49102,0,0.00,2,2,0,2,46004,50000,1272,49676,0,0,0,0,0.00,0.00,0.00,0.00
2014-04-04 19:40:00,2,49393,0,0.00,2,2,0,2,45717,50000,1275,50000,0,0,0,0,0.00,0.00,0.00,0.00
2014-04-04 19:50:00,2,47383,0,0.00,2,2,0,2,40266,50000,3053,48870,0,0,0,0,0.00,0.00,0.00,0.00
2014-04-04 20:00:00,2,49025,0,0.00,2,2,0,2,44119,50000,1791,49936,0,0,0,0,0.00,0.00,0.00,0.00
2014-04-04 20:10:00,2,49550,0,0.00,2,2,0,2,47015,50000,885,49964,0,0,0,0,0.00,0.00,0.00,0.00
2014-04-04 20:20:00,2,49678,0,0.00,2,2,0,2,47878,50000,655,50000,0,0,0,0,0.00,0.00,0.00,0.00
2014-04-04 20:30:00,2,47323,0,0.00,2,2,0,2,42188,50000,3160,49141,0,0,0,0,0.00,0.00,0.00,0.00
2014-04-04 20:40:00,2,46822,0,0.00,2,2,0,2,39616,50000,3155,47516,0,0,0,0,0.00,0.00,0.00,0.00
2014-04-04 20:50:00,2,46064,0,0.00,2,2,0,2,39419,50000,3267,46430,0,0,0,0,0.00,0.00,0.00,0.00
2014-04-04 21:00:00,2,47350,0,0.00,2,2,0,2,44585,50000,2112,46877,0,0,0,0,0.00,0.00,0.00,0.00
2014-04-04 21:10:00,2,43521,0,0.00,2,2,0,2,33629,50000,4766,44342,0,0,0,0,0.00,0.00,0.00,0.00
2014-04-04 21:20:00,2,42570,0,0.00,2,2,0,2,35763,50000,4795,42056,0,0,0,0,0.00,0.00,0.00,0.00
2014-04-04 21:30:00,2,44307,0,0.00,2,2,0,2,38702,50000,3610,44406,0,0,0,0,0.00,0.00,0.00,0.00
2014-04-04 21:40:00,2,42024,0,0.00,2,2,0,2,30825,50000,7043,43876,0,0,0,0,0.00,0.00,0.00,0.00
2014-04-04 21:50:00,2,44713,0,0.00,2,2,0,2,38673,50000,3792,44390,0,0,0,0,0.00,0.00,0.00,0.00
2014-04-04 22:00:00,2,36832,0,0.00,2,2,0,2,25532,50000,7145,34828,0,0,0,0,0.00,0.00,0.00,0.00
2014-04-04 22:10:00,2,32275,0,0.00,2,2,0,2,22917,41346,5391,32943,0,0,0,0,0.00,0.00,0.00,0.00
2014-04-04 22:20:00,2,42160,0,0.00,2,2,0,2,34464,50000,4674,42999,0,0,0,0,0.00,0.00,0.00,0.00
2014-04-04 22:30:00,2,35993,0,0.00,2,2,0,2,24658,46671,7138,35268,0,0,0,0,0.00,0.00,0.00,0.00
2014-04-04 22:40:00,2,38963,0,0.00,2,2,0,2,25210,50000,7856,37666,0,0,0,0,0.00,0.00,0.00,0.00
2014-04-04 22:50:00,2,40253,0,0.00,2,2,0,2,27387,50000,6523,41189,0,0,0,0,0.00,0.00,0.00,0.00
2014-04-04 23:00:00,2,35250,0,0.00,2,2,0,2,27732,43979,5285,35498,0,0,0,0,0.00,0.00,0.00,0.00
2014-04-04 23:10:00,2,36709,0,0.00,2,2,0,2,25223,50000,7652,36332,0,0,0,0,0.00,0.00,0.00,0.00
2014-04-04 23:20:00,2,36032,0,0.00,2,2,0,2,25618,46014,5850,36914,0,0,0,0,0.00,0.00,0.00,0.00
2014-04-04 23:30:00,2,38604,0,0.00,2,2,0,2,28313,49355,6639,37242,0,0,0,0,0.00,0.00,0.00,0.00
2014-04-04 23:40:00,2,36141,0,0.00,2,2,0,2,25103,50000,9288,32939,0,0,0,0,0.00,0.00,0.00,0.00
2014-04-04 23:50:00,2,29532,0,0.00,2,2,0,2,20392,39578,6202,28536,0,0,0,0,0.00,0.00,0.00,0.00
